Time,TemperatureF,DewpointF,PressureIn,WindDirection,WindDirectionDegrees,WindSpeedMPH,WindSpeedGustMPH,Humidity,HourlyPrecipIn,Conditions,Clouds,dailyrainin,SolarRadiationWatts/m^2,SoftwareType,DateUTC
2013-11-05 00:02:00,32.0,32.0,-100.00,SW,225,0.0,2.0,100,0.00,,,-99.99,0.000000,,2013-11-05 09:02:00,
2013-11-05 00:11:00,32.0,32.0,-100.00,SW,225,0.0,2.0,100,0.00,,,-99.99,0.000000,,2013-11-05 09:11:00,
2013-11-05 00:22:00,32.0,32.0,-100.00,SW,225,0.0,2.0,100,0.00,,,-99.99,0.000000,,2013-11-05 09:22:00,
2013-11-05 00:53:00,32.0,32.0,-100.00,NW,322,0.0,1.0,100,0.00,,,-99.99,0.000000,,2013-11-05 09:53:00,
2013-11-05 01:02:00,32.0,32.0,-100.00,NW,322,0.0,1.0,100,0.00,,,-99.99,0.000000,,2013-11-05 10:02:00,
2013-11-05 01:13:00,32.0,32.0,-100.00,NW,322,0.0,1.0,100,0.00,,,-99.99,0.000000,,2013-11-05 10:13:00,
2013-11-05 01:23:00,32.0,32.0,-100.00,NW,322,0.0,1.0,100,0.00,,,-99.99,0.000000,,2013-11-05 10:23:00,
2013-11-05 01:53:00,32.0,32.0,-100.00,East,85,0.0,0.0,100,0.00,,,0.00,0.000000,,2013-11-05 10:53:00,
2013-11-05 02:02:00,32.0,32.0,-100.00,East,85,0.0,0.0,100,0.00,,,0.00,0.000000,,2013-11-05 11:02:00,
2013-11-05 02:12:00,32.0,32.0,-100.00,East,85,0.0,0.0,100,0.00,,,0.00,0.000000,,2013-11-05 11:12:00,
2013-11-05 02:22:00,32.0,32.0,-100.00,East,85,0.0,0.0,100,0.00,,,0.00,0.000000,,2013-11-05 11:22:00,
2013-11-05 02:52:00,32.0,32.0,-100.00,ESE,115,0.0,1.0,100,0.00,,,0.00,0.000000,,2013-11-05 11:52:00,
2013-11-05 03:02:00,32.0,32.0,-100.00,ESE,115,0.0,1.0,100,0.00,,,0.00,0.000000,,2013-11-05 12:02:00,
2013-11-05 03:12:00,32.0,32.0,-100.00,ESE,115,0.0,1.0,100,0.00,,,0.00,0.000000,,2013-11-05 12:12:00,
2013-11-05 03:22:00,32.0,32.0,-100.00,ESE,115,0.0,1.0,100,0.00,,,0.00,0.000000,,2013-11-05 12:22:00,
2013-11-05 03:52:00,32.0,32.0,-100.00,ESE,119,0.0,2.0,100,0.00,,,0.00,0.000000,,2013-11-05 12:52:00,
2013-11-05 04:01:00,32.0,32.0,-100.00,ESE,119,0.0,2.0,100,0.00,,,0.00,0.000000,,2013-11-05 13:01:00,
2013-11-05 04:11:00,32.0,32.0,-100.00,ESE,119,0.0,2.0,100,0.00,,,0.00,0.000000,,2013-11-05 13:11:00,
2013-11-05 04:21:00,32.0,32.0,-100.00,ESE,119,0.0,2.0,100,0.00,,,0.00,0.000000,,2013-11-05 13:21:00,
2013-11-05 04:52:00,32.0,32.0,-100.00,ESE,116,0.0,1.0,100,0.00,,,0.00,0.000000,,2013-11-05 13:52:00,
2013-11-05 05:02:00,32.0,32.0,-100.00,ESE,116,0.0,1.0,100,0.00,,,0.00,0.000000,,2013-11-05 14:02:00,
2013-11-05 05:11:00,32.0,32.0,-100.00,ESE,116,0.0,1.0,100,0.00,,,0.00,0.000000,,2013-11-05 14:11:00,
2013-11-05 05:22:00,32.0,32.0,-100.00,ESE,116,0.0,1.0,100,0.00,,,0.00,0.000000,,2013-11-05 14:22:00,
2013-11-05 05:52:00,32.0,32.0,-100.00,SE,127,0.0,2.0,100,0.00,,,0.00,0.000000,,2013-11-05 14:52:00,
2013-11-05 06:02:00,32.0,32.0,-100.00,SE,127,0.0,2.0,100,0.00,,,0.00,0.000000,,2013-11-05 15:02:00,
2013-11-05 06:11:00,32.0,32.0,-100.00,SE,127,0.0,2.0,100,0.00,,,0.00,0.000000,,2013-11-05 15:11:00,
2013-11-05 06:21:00,32.0,32.0,-100.00,SE,127,0.0,2.0,100,0.00,,,0.00,0.000000,,2013-11-05 15:21:00,
2013-11-05 06:53:00,32.0,32.0,-100.00,ESE,103,0.0,1.0,100,0.00,,,0.00,0.000000,,2013-11-05 15:53:00,
2013-11-05 07:03:00,32.0,32.0,-100.00,ESE,103,0.0,1.0,100,0.00,,,0.00,0.000000,,2013-11-05 16:03:00,
2013-11-05 07:13:00,32.0,32.0,-100.00,ESE,103,0.0,1.0,100,0.00,,,0.00,0.000000,,2013-11-05 16:13:00,
2013-11-05 07:23:00,32.0,32.0,-100.00,ESE,103,0.0,1.0,100,0.00,,,0.00,0.000000,,2013-11-05 16:23:00,
2013-11-05 07:53:00,32.0,32.0,-100.00,ESE,121,0.0,1.0,100,0.00,,,0.00,0.000000,,2013-11-05 16:53:00,
2013-11-05 08:02:00,32.0,32.0,-100.00,ESE,121,0.0,1.0,100,0.00,,,0.00,0.000000,,2013-11-05 17:02:00,
2013-11-05 08:12:00,32.0,32.0,-100.00,ESE,121,0.0,1.0,100,0.00,,,0.00,0.000000,,2013-11-05 17:12:00,
2013-11-05 08:22:00,32.0,32.0,-100.00,ESE,121,0.0,1.0,100,0.00,,,0.00,0.000000,,2013-11-05 17:22:00,
2013-11-05 08:52:00,32.0,32.0,-100.00,ESE,122,1.0,2.0,100,0.00,,,0.00,1.000000,,2013-11-05 17:52:00,
2013-11-05 09:02:00,32.0,32.0,-100.00,ESE,122,1.0,2.0,100,0.00,,,0.00,1.000000,,2013-11-05 18:02:00,
2013-11-05 09:12:00,32.0,32.0,-100.00,ESE,122,1.0,2.0,100,0.00,,,0.00,1.000000,,2013-11-05 18:12:00,
2013-11-05 09:22:00,32.0,32.0,-100.00,ESE,122,1.0,2.0,100,0.00,,,0.00,1.000000,,2013-11-05 18:22:00,
2013-11-05 09:52:00,32.0,32.0,-100.00,SE,133,1.0,3.0,100,0.00,,,0.00,15.000000,,2013-11-05 18:52:00,
2013-11-05 10:02:00,32.0,32.0,-100.00,SE,133,1.0,3.0,100,0.00,,,0.00,15.000000,,2013-11-05 19:02:00,
2013-11-05 10:11:00,32.0,32.0,-100.00,SE,133,1.0,3.0,100,0.00,,,0.00,15.000000,,2013-11-05 19:11:00,
2013-11-05 10:21:00,32.0,32.0,-100.00,SE,133,1.0,3.0,100,0.00,,,0.00,15.000000,,2013-11-05 19:21:00,
2013-11-05 10:52:00,34.0,34.0,-100.00,SSE,149,2.0,4.0,100,0.00,,,0.00,61.000000,,2013-11-05 19:52:00,
2013-11-05 11:02:00,34.0,34.0,-100.00,SSE,149,2.0,4.0,100,0.00,,,0.00,61.000000,,2013-11-05 20:02:00,
2013-11-05 11:12:00,34.0,34.0,-100.00,SSE,149,2.0,4.0,100,0.00,,,0.00,61.000000,,2013-11-05 20:12:00,
2013-11-05 11:22:00,34.0,34.0,-100.00,SSE,149,2.0,4.0,100,0.00,,,0.00,61.000000,,2013-11-05 20:22:00,
2013-11-05 11:53:00,36.0,36.0,-100.00,SE,142,2.0,4.0,100,1.24,,,1.24,58.000000,,2013-11-05 20:53:00,
2013-11-05 12:02:00,36.0,36.0,-100.00,SE,142,2.0,4.0,100,1.24,,,1.24,58.000000,,2013-11-05 21:02:00,
2013-11-05 12:11:00,36.0,36.0,-100.00,SE,142,2.0,4.0,100,1.24,,,1.24,58.000000,,2013-11-05 21:11:00,
2013-11-05 12:21:00,36.0,36.0,-100.00,SE,142,2.0,4.0,100,1.24,,,1.24,58.000000,,2013-11-05 21:21:00,
2013-11-05 12:54:00,36.0,36.0,-100.00,SE,142,2.0,3.0,100,-99.99,,,0.10,86.000000,,2013-11-05 21:54:00,
2013-11-05 13:04:00,36.0,36.0,-100.00,SE,142,2.0,3.0,100,-99.99,,,0.10,86.000000,,2013-11-05 22:04:00,
2013-11-05 13:13:00,36.0,36.0,-100.00,SE,142,2.0,3.0,100,-99.99,,,0.10,86.000000,,2013-11-05 22:13:00,
2013-11-05 13:23:00,36.0,36.0,-100.00,SE,142,2.0,3.0,100,-99.99,,,0.10,86.000000,,2013-11-05 22:23:00,
2013-11-05 13:53:00,36.0,36.0,-100.00,SE,140,1.0,3.0,100,0.01,,,0.11,72.000000,,2013-11-05 22:53:00,
2013-11-05 14:03:00,36.0,36.0,-100.00,SE,140,1.0,3.0,100,0.01,,,0.11,72.000000,,2013-11-05 23:03:00,
2013-11-05 14:12:00,36.0,36.0,-100.00,SE,140,1.0,3.0,100,0.01,,,0.11,72.000000,,2013-11-05 23:12:00,
2013-11-05 14:22:00,36.0,36.0,-100.00,SE,140,1.0,3.0,100,0.01,,,0.11,72.000000,,2013-11-05 23:22:00,
2013-11-05 14:53:00,37.0,37.0,-100.00,SE,142,1.0,2.0,100,0.02,,,0.13,81.000000,,2013-11-05 23:53:00,
2013-11-05 15:03:00,37.0,37.0,-100.00,SE,142,1.0,2.0,100,0.02,,,0.13,81.000000,,2013-11-06 00:03:00,
2013-11-05 15:12:00,37.0,37.0,-100.00,SE,142,1.0,2.0,100,0.02,,,0.13,81.000000,,2013-11-06 00:12:00,
2013-11-05 15:21:00,37.0,37.0,-100.00,SE,142,1.0,2.0,100,0.02,,,0.13,81.000000,,2013-11-06 00:21:00,
2013-11-05 15:52:00,37.0,37.0,-100.00,SE,141,1.0,3.0,100,-99.99,,,0.11,49.000000,,2013-11-06 00:52:00,
2013-11-05 16:02:00,37.0,37.0,-100.00,SE,141,1.0,3.0,100,-99.99,,,0.11,49.000000,,2013-11-06 01:02:00,
2013-11-05 16:11:00,37.0,37.0,-100.00,SE,141,1.0,3.0,100,-99.99,,,0.11,49.000000,,2013-11-06 01:11:00,
2013-11-05 16:21:00,37.0,37.0,-100.00,SE,141,1.0,3.0,100,-99.99,,,0.11,49.000000,,2013-11-06 01:21:00,
2013-11-05 16:52:00,37.0,37.0,-100.00,SE,133,1.0,4.0,100,-99.99,,,0.10,8.000000,,2013-11-06 01:52:00,
2013-11-05 17:02:00,37.0,37.0,-100.00,SE,133,1.0,4.0,100,-99.99,,,0.10,8.000000,,2013-11-06 02:02:00,
2013-11-05 17:12:00,37.0,37.0,-100.00,SE,133,1.0,4.0,100,-99.99,,,0.10,8.000000,,2013-11-06 02:12:00,
2013-11-05 17:22:00,37.0,37.0,-100.00,SE,133,1.0,4.0,100,-99.99,,,0.10,8.000000,,2013-11-06 02:22:00,
2013-11-05 17:52:00,36.0,36.0,-100.00,SE,129,1.0,3.0,100,-99.99,,,0.08,0.000000,,2013-11-06 02:52:00,
2013-11-05 18:02:00,36.0,36.0,-100.00,SE,129,1.0,3.0,100,-99.99,,,0.08,0.000000,,2013-11-06 03:02:00,
2013-11-05 18:12:00,36.0,36.0,-100.00,SE,129,1.0,3.0,100,-99.99,,,0.08,0.000000,,2013-11-06 03:12:00,
2013-11-05 18:22:00,36.0,36.0,-100.00,SE,129,1.0,3.0,100,-99.99,,,0.08,0.000000,,2013-11-06 03:22:00,
2013-11-05 18:55:00,36.0,36.0,-100.00,SE,130,1.0,3.0,100,0.00,,,0.08,0.000000,,2013-11-06 03:55:00,
2013-11-05 19:04:00,36.0,36.0,-100.00,SE,130,1.0,3.0,100,0.00,,,0.08,0.000000,,2013-11-06 04:04:00,
2013-11-05 19:13:00,36.0,36.0,-100.00,SE,130,1.0,3.0,100,0.00,,,0.08,0.000000,,2013-11-06 04:13:00,
2013-11-05 19:23:00,36.0,36.0,-100.00,SE,130,1.0,3.0,100,0.00,,,0.08,0.000000,,2013-11-06 04:23:00,
2013-11-05 19:53:00,36.0,36.0,-100.00,SSE,163,0.0,2.0,100,-99.99,,,0.05,0.000000,,2013-11-06 04:53:00,
2013-11-05 20:03:00,36.0,36.0,-100.00,SSE,163,0.0,2.0,100,-99.99,,,0.05,0.000000,,2013-11-06 05:03:00,
2013-11-05 20:13:00,36.0,36.0,-100.00,SSE,163,0.0,2.0,100,-99.99,,,0.05,0.000000,,2013-11-06 05:13:00,
2013-11-05 20:23:00,36.0,36.0,-100.00,SSE,163,0.0,2.0,100,-99.99,,,0.05,0.000000,,2013-11-06 05:23:00,
2013-11-05 20:53:00,36.0,36.0,-100.00,ESE,103,0.0,1.0,100,-99.99,,,0.04,0.000000,,2013-11-06 05:53:00,
2013-11-05 21:03:00,36.0,36.0,-100.00,ESE,103,0.0,1.0,100,-99.99,,,0.04,0.000000,,2013-11-06 06:03:00,
2013-11-05 21:13:00,36.0,36.0,-100.00,ESE,103,0.0,1.0,100,-99.99,,,0.04,0.000000,,2013-11-06 06:13:00,
2013-11-05 21:22:00,36.0,36.0,-100.00,ESE,103,0.0,1.0,100,-99.99,,,0.04,0.000000,,2013-11-06 06:22:00,
2013-11-05 21:52:00,36.0,36.0,-100.00,SE,126,1.0,4.0,100,-99.99,,,0.03,0.000000,,2013-11-06 06:52:00,
2013-11-05 22:02:00,36.0,36.0,-100.00,SE,126,1.0,4.0,100,-99.99,,,0.03,0.000000,,2013-11-06 07:02:00,
2013-11-05 22:12:00,36.0,36.0,-100.00,SE,126,1.0,4.0,100,-99.99,,,0.03,0.000000,,2013-11-06 07:12:00,
2013-11-05 22:21:00,36.0,36.0,-100.00,SE,126,1.0,4.0,100,-99.99,,,0.03,0.000000,,2013-11-06 07:21:00,
2013-11-05 22:52:00,34.0,34.0,-100.00,SE,132,1.0,4.0,100,-99.99,,,0.02,0.000000,,2013-11-06 07:52:00,
2013-11-05 23:02:00,34.0,34.0,-100.00,SE,132,1.0,4.0,100,-99.99,,,0.02,0.000000,,2013-11-06 08:02:00,
2013-11-05 23:12:00,34.0,34.0,-100.00,SE,132,1.0,4.0,100,-99.99,,,0.02,0.000000,,2013-11-06 08:12:00,
2013-11-05 23:22:00,34.0,34.0,-100.00,SE,132,1.0,4.0,100,-99.99,,,0.02,0.000000,,2013-11-06 08:22:00,
2013-11-05 23:52:00,32.0,32.0,-100.00,SE,132,0.0,2.0,100,-99.99,,,0.00,0.000000,,2013-11-06 08:52:00,